Forside
METAR-TAF:

METAR-TAF

Lufthavne :

Boscobel Airport

Boscobel, Wisconsin, USA

Breddekreds: 43-09-22N, længdekreds: 090-40-39W, højde: 205 m

Aktuelle vejr

Denne rapport blev lavet for 53 minutter siden, kl. 11:53 UTC
Vind stille
Temperatur 1°C
Fugtighed 93%
Tryk 1028 hPa
Sigt: 16.1 km
skyfri

METAR: KOVS 111153Z AUTO 00000KT 10SM CLR 01/00 A3037 RMK AO2 SLP291 T00110000 10033 21022 53020

Tid: 07:46 (12:46 UTC)


TAF: fraværende

Vejrobservationer og prognoser fra mere end 4000 lufthavne (METAR og TAF).

De gule og røde prikker repræsenterer de meteorologiske stationer.

Flyt musen over at se navnet på stationen.

Så klik over at se vejr observationer og prognoser.

At skifte det kort: Klik på de grønne knapper med et sort kors for at zoome ind; på den grønne knap med en bindestreg for at zoome ud; eller på de grønne pile for tilstødende kort.


METAR-TAF: